Showing default

UNICORN-2S, 68475

Orbit data source: Space-Track

UNICORN-2S, 68475 is a payload satellite owned by Alba Orbital (DE) in SSO that was launched on Mon, 30 Mar 2026 UTC via an FALCON 9 launch vehicle from the Air Force Western Test Range (AFWTR). Payload-class satellites include a variety of spacecraft equipped with specific instruments for various scientific and technological missions. These include communications satellites like Starlink; space stations such as the ISS; scientific satellites like the Hubble; Earth observation satellites from companies like Planet Labs, Umbra, and HawkEye 360; GPS; miniature CubeSats for education and research; and military/defense satellites.

Loading next visibility...
Identifier
68475, 2026-067BM
Orbit
SSO
Country
Flag of DEDE / GER
Related business
Manufacturer
Alba Orbital
Mission
Operational spacecraft
Bus & Motor
POCKETQUBE 3P, Unknown motor
Mass
~0.75 kg wet, ~0.75 kg dry
Launch date (UTC)
2026-03-30 (3 months ago)
Launch vehicle
FALCON 9
Launch site
Air Force Western Test Range (AFWTR)
Object type
Payload
Rocket body
Debris
Shape & HBR
Unknown shape, 0.2 m
Radar Cross Section
Medium (>0.1 m² and <1 m²)

Expand to show TLE details & history
Last TLE update: 2 days ago

TLE from 2 days ago
0 UNICORN-2S
1 68475U 26067BM  26171.41951062  .00007294  00000-0  72319-3 0  9993
2 68475  97.7504 129.5084 0005921  60.0512 300.1294 14.92071727 11689
Epoch: 2026-06-20T10:04Z
TLE epoch observation values (Epoch: 2026-06-20T10:04:05.717Z)
Latitude
-0.00005°
Longitude
69.85018°
Altitude
592.449 km
Speed
7.565 km/s
True Right ascension
08h 38m 02s
True Declination
0° 00' 00"
Sunlit
Object was in daylight at epoch
Visualization orbit readout
Latitude
Unknown
Longitude
Unknown
Altitude
Unknown
Speed
Unknown
Apparent Right ascension
Unknown
Apparent Declination
Unknown
Sunlit
N/A
Visualization observer readout
Local Sidereal Time
15:44:36
Azimuth
Unknown
Elevation
Unknown
Doppler factor
Unknown
Orbital elements
Apogee altitude
592.62 km
Perigee altitude
584.37 km
Semi-major axis
6,966.632 km
Eccentricity
0.00059
Inclination
97.7504°
RAAN
129.5084°
Arg. of periapsis
60.0512°
True anomaly
300.0707°
Mean anomaly
300.1294°
Eccentric anomaly
300.10005°
Mean motion
3.73258 °/min
Orbital period
96.45 mins
BSTAR
0.00072319
Loading maneuver chart data...
Computing Atmospheric mass density...
Loading historical data...
Loading historical data...
Loading historical data...
Loading historical data...
Loading historical data...
Loading historical data...
Loading historical data...

Documentation

Showing up to 5 results
|